Captain Jimmy T Moran — WDE6653 — position and weather

sailwx.info

Track history (hours):
 
Tides and Currents Weather Stations Pressure Air Temp Water Temp Dewpoint Dewpoint Depression Visibility Wind Speed Wind Dir Waves Ship Positions

Captain Jimmy T Moran

Owner: Moran Towing Corp, New Cannan, CT. More information available from US FCC via Universal Licensing System and Coast Guard Vessel Documentation Center.

Last reported at 2014-Oct-24 08:24 UTC. Time now 2014-Oct-24 15:27 UTC.
Position N 29°55' W 090°06'.

Length 26 m; draft 4.9 m.

Type: Tug. MMSI: 367382920.

Date/timePositionNaut miles runAvg speedWind from/ knotsBaromVisibWave heightAir tempDewpointWater temp
2014-Oct-24 08:24N 29°55' W 090°06'5 1.3
2014-Oct-24 04:31N 29°57' W 090°01'0 0.0
2014-Oct-24 03:31N 29°57' W 090°01'0 0.0
2014-Oct-24 02:22N 29°57' W 090°01'0 0.0
2014-Oct-24 01:19N 29°57' W 090°01'0 0.0
2014-Oct-24 00:34N 29°57' W 090°01'0 0.0
2014-Oct-23 23:33N 29°57' W 090°01'0 0.0
2014-Oct-23 22:33N 29°57' W 090°01'0 0.0
2014-Oct-23 21:30N 29°57' W 090°01'0 0.0
2014-Oct-23 20:32N 29°57' W 090°01'2 0.1
2014-Oct-22 23:31N 29°56' W 090°04'3 0.3
2014-Oct-22 13:22N 29°55' W 090°06'  
2014-Oct-18 07:29N 29°55' W 090°06'0 0.0
2014-Oct-17 07:28N 29°55' W 090°06'  
Track history (hours):
 
Tides and Currents Weather Stations Pressure Air Temp Water Temp Dewpoint Dewpoint Depression Visibility Wind Speed Wind Dir Waves Ship Positions

Captain Jimmy T Moran

Owner: Moran Towing Corp, New Cannan, CT. More information available from US FCC via Universal Licensing System and Coast Guard Vessel Documentation Center.

Last reported at 2014-Oct-24 08:24 UTC. Time now 2014-Oct-24 15:27 UTC.
Position N 29°55' W 090°06'.

Length 26 m; draft 4.9 m.

Type: Tug. MMSI: 367382920.

Date/timePositionNaut miles runAvg speedWind from/ knotsBaromVisibWave heightAir tempDewpointWater temp
2014-Oct-24 08:24N 29°55' W 090°06'5 1.3
2014-Oct-24 04:31N 29°57' W 090°01'0 0.0
2014-Oct-24 03:31N 29°57' W 090°01'0 0.0
2014-Oct-24 02:22N 29°57' W 090°01'0 0.0
2014-Oct-24 01:19N 29°57' W 090°01'0 0.0
2014-Oct-24 00:34N 29°57' W 090°01'0 0.0
2014-Oct-23 23:33N 29°57' W 090°01'0 0.0
2014-Oct-23 22:33N 29°57' W 090°01'0 0.0
2014-Oct-23 21:30N 29°57' W 090°01'0 0.0
2014-Oct-23 20:32N 29°57' W 090°01'2 0.1
2014-Oct-22 23:31N 29°56' W 090°04'3 0.3
2014-Oct-22 13:22N 29°55' W 090°06'  
2014-Oct-18 07:29N 29°55' W 090°06'0 0.0
2014-Oct-17 07:28N 29°55' W 090°06'  

Dump ship's entire track history